Wilkerson Pass, CO

4:07 AM MDT on July 27, 2017 (GMT -0600)
Wilkerson Pass

Weather History for K4BM - December, 2013

Change the Weather History Date:

Friday, December 6, 2013

  Actual Average (KAFF) Record (KAFF)
Temperature  
Mean Temperature -1 °F -  
Max Temperature 5 °F 42 °F 64 °F (2003)
Min Temperature -7 °F 20 °F -18 °F (2013)
Degree Days  
Heating Degree Days 66    
Moisture  
Dew Point -7 °F    
Average Humidity 79    
Maximum Humidity 85    
Minimum Humidity 71    
Precipitation  
Precipitation 0.00 in - - ()
Sea Level Pressure  
Sea Level Pressure 29.70 in    
Wind  
Wind Speed 8 mph (SSW)    
Max Wind Speed 14 mph    
Max Gust Speed 22 mph    
Visibility 10 miles    
Events      
Averages and records for this station are not official NWS values.
T = Trace of Precipitation, MM = Missing Value Source: NWS Daily Summary

Daily Weather History Graph

Daily Weather History Graph

Search for Another Location

Airport or City:

Trip Planner

Search our weather history database for the weather conditions in past years. The results will help you decide how hot, cold, wet, or windy it might be!

Date:

Astronomy

Dec. 06, 2013 Rise Set
Actual Time 7:07 AM MST 4:39 PM MST
Civil Twilight 6:37 AM MST 5:09 PM MST
Nautical Twilight 6:03 AM MST 5:42 PM MST
Astronomical Twilight 5:31 AM MST 6:14 PM MST
Moon 10:15 AM MST (12/6) 9:12 PM MST (12/6)
Length of Visible Light 10h 31m
Length of Day
9h 32m
Waxing Crescent, 20% of the Moon is Illuminated
Dec 6
Waxing Crescent
Dec 9
First Quarter
Dec 17
Full
Dec 25
Last Quarter
Jan 1
New

Hourly Weather History & Observations

Time (MST) Temp. Windchill Dew Point Humidity Pressure Visibility Wind Dir Wind Speed Gust Speed Precip Events Conditions
12:00 AM -4.0 °F -16.3 °F -9.4 °F 78% 29.61 in 10.0 mi SSW 5.8 mph 18.4 mph N/A   Clear
12:21 AM -5.8 °F -18.4 °F -9.4 °F 84% 29.61 in 10.0 mi South 5.8 mph - N/A   Clear
12:41 AM -5.8 °F -18.4 °F -9.4 °F 84% 29.60 in 10.0 mi SSW 5.8 mph - N/A   Clear
1:01 AM -5.8 °F -18.4 °F -9.4 °F 84% 29.60 in 10.0 mi SSW 5.8 mph - N/A   Clear
1:21 AM -5.8 °F -19.9 °F -9.4 °F 84% 29.60 in 10.0 mi SSW 6.9 mph - N/A   Clear
1:41 AM -5.8 °F -18.4 °F -9.4 °F 84% 29.60 in 10.0 mi SSW 5.8 mph - N/A   Clear
2:01 AM -5.8 °F -19.9 °F -9.4 °F 84% 29.61 in 10.0 mi SSW 6.9 mph - N/A   Clear
2:21 AM -5.8 °F -19.9 °F -9.4 °F 84% 29.61 in 10.0 mi SSW 6.9 mph - N/A   Clear
2:41 AM -5.8 °F -19.9 °F -9.4 °F 84% 29.61 in 10.0 mi SSW 6.9 mph - N/A   Clear
3:01 AM -5.8 °F -19.9 °F -9.4 °F 84% 29.61 in 10.0 mi SSW 6.9 mph - N/A   Clear
3:21 AM -5.8 °F -18.4 °F -11.2 °F 77% 29.61 in 10.0 mi SSW 5.8 mph - N/A   Clear
3:41 AM -5.8 °F -19.9 °F -13.0 °F 71% 29.61 in 10.0 mi SSW 6.9 mph - N/A   Clear
4:00 AM -5.8 °F -21.2 °F -13.0 °F 71% 29.60 in 10.0 mi SSW 8.1 mph - N/A   Clear
4:21 AM -5.8 °F -19.9 °F -11.2 °F 77% 29.60 in 10.0 mi SSW 6.9 mph - N/A   Clear
4:40 AM -5.8 °F -23.4 °F -11.2 °F 77% 29.60 in 10.0 mi SW 10.4 mph 17.3 mph N/A   Clear
5:00 AM -5.8 °F -22.4 °F -11.2 °F 77% 29.61 in 10.0 mi SW 9.2 mph - N/A   Clear
5:20 AM -5.8 °F -22.4 °F -13.0 °F 71% 29.61 in 10.0 mi SSW 9.2 mph 16.1 mph N/A   Clear
5:40 AM -7.6 °F -24.6 °F -13.0 °F 77% 29.62 in 10.0 mi SSW 9.2 mph - N/A   Clear
6:00 AM -5.8 °F -21.2 °F -11.2 °F 77% 29.62 in 10.0 mi SW 8.1 mph - N/A   Clear
6:20 AM -5.8 °F -22.4 °F -13.0 °F 71% 29.62 in 10.0 mi SSW 9.2 mph 17.3 mph N/A   Clear
6:40 AM -7.6 °F -23.4 °F -13.0 °F 77% 29.62 in 10.0 mi SSW 8.1 mph - N/A   Clear
7:00 AM -7.6 °F -23.4 °F -13.0 °F 77% 29.64 in 10.0 mi SSW 8.1 mph - N/A   Clear
7:20 AM -7.6 °F -24.6 °F -13.0 °F 77% 29.64 in 10.0 mi SSW 9.2 mph - N/A   Clear
7:40 AM -5.8 °F -23.4 °F -13.0 °F 71% 29.65 in 10.0 mi SSW 10.4 mph - N/A   Clear
8:00 AM -5.8 °F -23.4 °F -9.4 °F 84% 29.65 in 10.0 mi SSW 10.4 mph 17.3 mph N/A   Clear
8:20 AM -5.8 °F -21.2 °F -9.4 °F 84% 29.66 in 10.0 mi SSW 8.1 mph - N/A   Scattered Clouds
8:41 AM -4.0 °F -19.0 °F -9.4 °F 78% 29.67 in 10.0 mi SSW 8.1 mph - N/A   Mostly Cloudy
9:01 AM -4.0 °F -21.2 °F -7.6 °F 85% 29.68 in 10.0 mi SSW 10.4 mph - N/A   Mostly Cloudy
9:20 AM -2.2 °F -18.0 °F -7.6 °F 78% 29.70 in 10.0 mi SSW 9.2 mph 17.3 mph N/A   Scattered Clouds
9:40 AM -0.4 °F -16.7 °F -5.8 °F 78% 29.70 in 10.0 mi SSW 10.4 mph 16.1 mph N/A   Scattered Clouds
10:01 AM -0.4 °F -13.4 °F -4.0 °F 85% 29.71 in 10.0 mi SSW 6.9 mph - N/A   Overcast
10:21 AM 1.4 °F -9.9 °F -4.0 °F 78% 29.72 in 10.0 mi SSW 5.8 mph - N/A   Scattered Clouds
10:41 AM 1.4 °F -9.9 °F -4.0 °F 78% 29.72 in 10.0 mi SSW 5.8 mph - N/A   Clear
10:59 AM 1.4 °F -8.3 °F -2.2 °F 85% 29.72 in 10.0 mi SSW 4.6 mph - N/A   Clear
11:21 AM 3.2 °F -9.1 °F -0.4 °F 85% 29.71 in 10.0 mi SSW 6.9 mph - N/A   Clear
11:41 AM 1.4 °F -11.3 °F -2.2 °F 85% 29.71 in 10.0 mi South 6.9 mph - N/A   Clear
12:01 PM 3.2 °F -9.1 °F -2.2 °F 78% 29.71 in 10.0 mi South 6.9 mph - N/A   Clear
12:21 PM 3.2 °F -9.1 °F -2.2 °F 78% 29.71 in 10.0 mi SSW 6.9 mph - N/A   Clear
12:41 PM 3.2 °F -11.3 °F -2.2 °F 78% 29.70 in 10.0 mi SSW 9.2 mph - N/A   Clear
1:01 PM 1.4 °F -9.9 °F -4.0 °F 78% 29.71 in 10.0 mi SSW 5.8 mph - N/A   Scattered Clouds
1:21 PM 5.0 °F -6.9 °F 1.4 °F 85% 29.71 in 10.0 mi SSW 6.9 mph - N/A   Mostly Cloudy
1:40 PM 5.0 °F -9.1 °F -0.4 °F 78% 29.70 in 10.0 mi SSW 9.2 mph - N/A   Mostly Cloudy
2:00 PM 3.2 °F -9.1 °F -0.4 °F 85% 29.71 in 10.0 mi SSW 6.9 mph - N/A   Mostly Cloudy
2:21 PM 3.2 °F -10.3 °F -2.2 °F 78% 29.71 in 10.0 mi SSW 8.1 mph - N/A   Scattered Clouds
2:41 PM 3.2 °F -9.1 °F -2.2 °F 78% 29.73 in 10.0 mi SSW 6.9 mph - N/A   Scattered Clouds
3:01 PM 3.2 °F -7.8 °F -2.2 °F 78% 29.74 in 10.0 mi SSW 5.8 mph - N/A   Overcast
3:21 PM 3.2 °F -10.3 °F -2.2 °F 78% 29.74 in 10.0 mi SSW 8.1 mph - N/A   Overcast
3:40 PM 1.4 °F -11.3 °F -4.0 °F 78% 29.75 in 10.0 mi SSW 6.9 mph - N/A   Scattered Clouds
4:01 PM 1.4 °F -11.3 °F -5.8 °F 72% 29.75 in 10.0 mi SSW 6.9 mph - N/A   Clear
4:21 PM -0.4 °F -14.7 °F -5.8 °F 78% 29.76 in 10.0 mi SSW 8.1 mph - N/A   Clear
4:41 PM -0.4 °F -13.4 °F -7.6 °F 72% 29.76 in 10.0 mi SSW 6.9 mph - N/A   Clear
5:01 PM -2.2 °F -15.6 °F -7.6 °F 78% 29.76 in 10.0 mi SSW 6.9 mph - N/A   Clear
5:20 PM -2.2 °F -15.6 °F -7.6 °F 78% 29.77 in 10.0 mi SSW 6.9 mph - N/A   Clear
5:41 PM -2.2 °F -16.8 °F -7.6 °F 78% 29.77 in 10.0 mi SSW 8.1 mph - N/A   Clear
6:01 PM -2.2 °F -18.0 °F -7.6 °F 78% 29.77 in 10.0 mi SSW 9.2 mph - N/A   Clear
6:20 PM -2.2 °F -19.9 °F -7.6 °F 78% 29.77 in 10.0 mi SSW 11.5 mph 16.1 mph N/A   Clear
6:41 PM -2.2 °F -18.0 °F -7.6 °F 78% 29.78 in 10.0 mi SSW 9.2 mph 18.4 mph N/A   Clear
7:01 PM -2.2 °F -18.0 °F -7.6 °F 78% 29.78 in 10.0 mi SSW 9.2 mph 17.3 mph N/A   Clear
7:21 PM -4.0 °F -20.2 °F -7.6 °F 85% 29.78 in 10.0 mi SSW 9.2 mph 17.3 mph N/A   Clear
7:41 PM -2.2 °F -18.0 °F -7.6 °F 78% 29.78 in 10.0 mi SSW 9.2 mph 16.1 mph N/A   Clear
8:01 PM -2.2 °F -18.9 °F -7.6 °F 78% 29.78 in 10.0 mi SSW 10.4 mph 21.9 mph N/A   Clear
8:21 PM -2.2 °F -18.9 °F -7.6 °F 78% 29.78 in 10.0 mi SSW 10.4 mph 18.4 mph N/A   Clear
8:41 PM -4.0 °F -20.2 °F -7.6 °F 85% 29.79 in 10.0 mi SSW 9.2 mph - N/A   Clear
9:01 PM -2.2 °F -18.0 °F -7.6 °F 78% 29.80 in 10.0 mi SSW 9.2 mph - N/A   Clear
9:21 PM -2.2 °F -19.9 °F -7.6 °F 78% 29.80 in 10.0 mi SSW 11.5 mph 18.4 mph N/A   Clear
9:40 PM -2.2 °F -19.9 °F -7.6 °F 78% 29.80 in 10.0 mi SSW 11.5 mph 21.9 mph N/A   Clear
10:00 PM -2.2 °F -18.9 °F -7.6 °F 78% 29.80 in 10.0 mi SSW 10.4 mph 18.4 mph N/A   Clear
10:21 PM -2.2 °F -20.7 °F -5.8 °F 85% 29.80 in 10.0 mi SSW 12.7 mph 19.6 mph N/A   Clear
10:41 PM -0.4 °F -19.2 °F -5.8 °F 78% 29.80 in 10.0 mi SSW 13.8 mph 21.9 mph N/A   Clear
11:01 PM -0.4 °F -18.4 °F -5.8 °F 78% 29.80 in 10.0 mi SSW 12.7 mph 18.4 mph N/A   Clear
11:21 PM -0.4 °F -18.4 °F -5.8 °F 78% 29.80 in 10.0 mi SW 12.7 mph 21.9 mph N/A   Clear
11:41 PM -0.4 °F -18.4 °F -5.8 °F 78% 29.79 in 10.0 mi SW 12.7 mph 18.4 mph N/A   Clear